Search for airport 
image banner adimage banner adimage banner ad
image banner ad

PA62 - Temple University

Located in Philadelphia, United States

ICAO - PA62, IATA -

Data provided by Airmate  

General information

Coordinates: N40°0'21" W75°9'1"
Elevation is 183 feet MSL.
Magnetic variation is -11° East
View others Airports in Pennsylvania

Operational data

Special qualification required
Current time UTC:
Current local time:
Weather at : KPNE - Northeast Philadelphia ( 15 km )
METAR: KPNE 091254Z 25004KT 10SM CLR 11/04 A3012 RMK AO2 SLP199 T01060044 $
TAF: KPNE 091120Z 0912/1012 VRB04KT P6SM SCT250 FM092200 15006KT P6SM VCSH OVC025 FM100400 12005KT P6SM BKN045 WS020/22040KT FM101100 31008KT P6SM SCT035
View NOTAMs / SUP AIP / TFR affecting this airport [VIEW]
Communications frequencies: [VIEW]

Runways:

Airport contact information

Address: Philadelphia United States

Satellite view of PA62